Flight Track Log - Related Links

Times and Time Zones

All times are in EDT time to prevent confusion due to time zone crossing. See the ASQ5052 flight status page for this flight to view local times or setup timezone preferences in your user account.


Time Position Orientation Groundspeed Altitude Reporting Facility
EDT Latitude Longitude Course Direction KTS MPH feet Rate Location/Type
Tue 09:16:43 PM 33.6075 -84.5375 121° Southeast 406 467 3,400  Level Atlanta Center
Tue 09:21:43 PM 33.4622 -84.2456 81° East 353 406 13,300 1,850 Climbing Atlanta Center
Tue 09:22:43 PM 33.4769 -84.1358 80° East 369 425 14,500 1,250 Climbing Atlanta Center
Tue 09:23:43 PM 33.4958 -84.0089 80° East 374 430 15,800 1,200 Climbing Atlanta Center
Tue 09:24:43 PM 33.5144 -83.8794 80° East 374 430 16,900 1,300 Climbing Atlanta Center
Tue 09:25:43 PM 33.5331 -83.7472 80° East 392 451 18,400 1,500 Climbing Atlanta Center
Tue 09:26:43 PM 33.5514 -83.6175 81° East 392 451 19,900 1,350 Climbing Atlanta Center
Tue 09:27:43 PM 33.5675 -83.4878 82° East 392 451 21,100 1,100 Climbing Atlanta Center
Tue 09:28:43 PM 33.5836 -83.3556 81° East 397 457 22,100 950 Climbing Atlanta Center
Tue 09:29:43 PM 33.6017 -83.2208 80° East 402 463 23,000 636 Climbing Atlanta Center
Tue 09:30:55 PM 33.6214 -83.0808 81° East 414 476 23,500 545 Climbing Atlanta Center
Tue 09:31:55 PM 33.6431 -82.9083 85° East 433 498 24,200 650 Climbing Atlanta Center
Tue 09:32:55 PM 33.6542 -82.7636 70° East 438 504 24,800 600 Climbing Atlanta Center
Tue 09:33:55 PM 33.6964 -82.6206 65° Northeast 438 504 25,400 600 Climbing Atlanta Center
Tue 09:34:55 PM 33.7531 -82.4722 64° Northeast 445 512 26,000 600 Climbing Atlanta Center
Tue 09:35:55 PM 33.8094 -82.3336 63° Northeast 451 519 26,600 600 Climbing Atlanta Center
Tue 09:36:55 PM 33.8661 -82.1975 63° Northeast 451 519 27,200 512 Climbing Atlanta Center
Tue 09:38:39 PM 33.9603 -81.9736 64° Northeast 462 532 28,000 479 Climbing Jacksonville Center
Tue 09:39:38 PM 34.0178 -81.8328 69° East 462 532 28,500 500 Climbing Jacksonville Center
Tue 09:40:39 PM 34.0644 -81.6892 62° Northeast 462 532 29,000 248 Climbing Jacksonville Center
Tue 09:41:39 PM 34.1256 -81.5481 63° Northeast 462 532 29,000  Level Jacksonville Center
Tue 09:42:38 PM 34.1864 -81.4039 64° Northeast 467 537 29,000  Level Jacksonville Center
Tue 09:43:39 PM 34.2533 -81.2394 64° Northeast 477 549 29,000  Level Jacksonville Center
Tue 09:44:39 PM 34.3117 -81.0925 63° Northeast 476 548 29,000  Level Jacksonville Center
Tue 09:45:38 PM 34.3742 -80.9428 63° Northeast 481 554 29,000  Level Jacksonville Center
Tue 09:46:39 PM 34.4344 -80.7981 62° Northeast 495 570 29,000  Level Jacksonville Center
Tue 09:47:38 PM 34.5047 -80.6375 63° Northeast 502 578 29,000  Level Jacksonville Center
Tue 09:48:39 PM 34.5686 -80.4822 66° East 509 586 29,000  Level Jacksonville Center
Tue 09:50:17 PM 34.6525 -80.2525 66° East 502 578 29,000  Level Washington Center
Tue 09:51:18 PM 34.7086 -80.0967 64° Northeast 497 572 29,000  Level Washington Center
Tue 09:52:16 PM 34.7756 -79.9258 66° East 497 572 29,000  Level Washington Center
Tue 09:53:17 PM 34.8333 -79.7694 66° East 497 572 29,000  Level Washington Center
Tue 09:54:18 PM 34.8839 -79.6303 62° Northeast 497 572 29,000 -850 Level Washington Center
Tue 09:55:17 PM 34.9494 -79.4817 68° East 496 571 27,300 -1,932 Descending Washington Center
Tue 09:56:16 PM 35.0025 -79.3194 81° East 504 580 25,200 -1,664 Descending Washington Center
Tue 09:57:16 PM 35.0242 -79.1581 94° East 491 565 24,000 -595 Descending Washington Center
Tue 09:58:17 PM 35.0144 -78.9903 99° East 474 545 24,000  Level Washington Center
Tue 09:59:17 PM 34.9939 -78.8272 100° East 484 557 24,000 -750 Level Washington Center
Tue 10:00:17 PM 34.9711 -78.6639 99° East 484 557 22,500 -1,983 Descending Washington Center
Tue 10:01:18 PM 34.9519 -78.5111 99° East 467 537 20,000 -2,459 Descending Washington Center
Tue 10:02:19 PM 34.9325 -78.3686 99° East 439 505 17,500 -2,622 Descending Washington Center
Tue 10:03:17 PM 34.9147 -78.2311 99° East 416 479 14,800 -2,769 Descending Washington Center
Tue 10:04:16 PM 34.8986 -78.1042 100° East 388 447 12,100 -1,950 Descending Washington Center
Tue 10:05:17 PM 34.8822 -77.9947 100° East 345 397 10,900 -2,066 Descending Washington Center
Tue 10:06:18 PM 34.8675 -77.8956 99° East 303 349 7,900 -2,900 Descending Washington Center
Tue 10:07:17 PM 34.8547 -77.7939 81° East 282 325 5,100 -1,900 Descending Washington Center
Tue 10:08:18 PM 34.8644 -77.7183 37° Northeast 225 259 4,100 -984 Descending Washington Center
Tue 10:09:19 PM 34.9131 -77.6739 89° East 200 230 3,100 -966 Descending Washington Center
Tue 10:10:16 PM 34.9142 -77.6208 140° Southeast 151 174 2,200 -923 Descending Washington Center
Tue 10:11:16 PM 34.8814 -77.5872 140° Southeast 132 152 1,300 -900 Descending Washington Center

Login

Don't have an account? Register now (free) for customized features, flight alerts, and more!